Waarnemingen

Advertentie
Mijn weer
Nice, Frankrijk (7690): temperatuur & dauwpunt: 15.02.2018 16:00:00 - 21.02.2018 16:00:00 (CET)Nice, Frankrijk (7690): temperatuur 5cm: 15.02.2018 16:00:00 - 21.02.2018 16:00:00 (CET)Nice, Frankrijk (7690): temperatuur -20cm & temperatuur -100cm: 15.02.2018 16:00:00 - 21.02.2018 16:00:00 (CET)Nice, Frankrijk (7690): windsnelheid & windstoten: 15.02.2018 16:00:00 - 21.02.2018 16:00:00 (CET)Nice, Frankrijk (7690): windrichting: 15.02.2018 16:00:00 - 21.02.2018 16:00:00 (CET)Nice, Frankrijk (7690): luchtdruk: 15.02.2018 16:00:00 - 21.02.2018 16:00:00 (CET)Nice, Frankrijk (7690): zicht: 15.02.2018 16:00:00 - 21.02.2018 16:00:00 (CET)Nice, Frankrijk (7690): Zonneschijnduur: 15.02.2018 16:00:00 - 21.02.2018 16:00:00 (CET)Nice, Frankrijk (7690): neerslag: 15.02.2018 16:00:00 - 21.02.2018 16:00:00 (CET)
Datum & Tijd tt [°C] td [°C] tt 5cm [°C] tt -20cm [°C] tt -100cm [°C] ff [km/u] ff [kn] fx [km/u] fx [kn] dd ppp [hPa] vv [km] sd [min] rr [mm]
21.02.2018 16:00:00 11,7 -0,8 12,4 11,2 11,7 21 11 37 20 OZO 1005,1 20 41 0,0
21.02.2018 15:00:00 11,7 -1,5 11,9 11,2 11,7 27 15 44 24 O 1005,1 20 13 0,0
21.02.2018 14:00:00 11,4 -0,4 12,0 11,2 11,5 28 15 46 25 O 1005,4 20 11 0,0
21.02.2018 13:00:00 11,4 -0,1 11,6 11,2 11,7 24 13 46 25 O 1005,8 20 0 0,0
21.02.2018 12:00:00 11,0 -0,2 11,6 11,2 11,5 29 16 48 26 O 1006,0 20 35 0,0
21.02.2018 11:00:00 10,5 0,2 13,9 11,2 11,6 9 5 20 11 NW 1006,0 20 60 0,0
21.02.2018 10:00:00 8,0 2,0 5,7 11,2 11,5 12 6 19 11 NNW 1006,1 20 47 0,0
21.02.2018 09:00:00 5,2 0,9 4,9 11,2 11,6 13 7 22 12 NNW 1005,6 20 11 0,0
21.02.2018 08:00:00 5,1 1,0 4,2 11,2 11,4 13 7 22 12 NNW 1005,4 20 14 0,0
21.02.2018 07:00:00 5,4 1,1 4,7 11,2 11,6 16 8 25 14 NNW 1004,9 20 0 0,0
21.02.2018 06:00:00 6,1 1,6 4,6 11,1 11,5 13 7 21 11 WNW 1004,9 20 0 0,0
21.02.2018 05:00:00 6,0 1,5 5,0 11,1 11,7 13 7 19 10 NNW 1005,0 20 0 0,0
21.02.2018 04:00:00 6,0 1,7 4,8 11,2 11,7 16 9 20 11 NNW 1005,6 20 0 0,0
21.02.2018 03:00:00 6,0 1,7 4,8 11,2 11,6 12 6 19 10 NNW 1006,0 20 0 0,0
21.02.2018 02:00:00 6,0 2,1 4,6 11,1 11,6 14 7 21 11 NNW 1006,6 15 0 0,0
21.02.2018 01:00:00 6,1 1,8 5,1 11,1 11,7 12 7 19 10 NNW 1006,8 15 0 0,0
21.02.2018 00:00:00 6,5 2,4 5,4 11,1 11,6 10 6 16 8 NNW 1007,1 15 0 0,0
20.02.2018 23:00:00 6,5 2,6 5,2 11,1 11,6 10 5 16 9 NNW 1007,2 15 0 0,0
20.02.2018 22:00:00 7,1 2,8 6,1 11,1 11,7 8 4 17 9 N 1007,4 15 0 0,0
20.02.2018 21:00:00 7,8 2,5 5,9 11,1 11,7 11 6 14 7 NW 1007,4 15 0 0,0
20.02.2018 20:00:00 9,2 1,1 6,0 11,1 11,6 4 2 13 7 W 1007,1 30 0 0,0
20.02.2018 19:00:00 9,5 1,6 8,1 11,1 11,6 6 4 20 11 O 1006,6 20 0 0,0
20.02.2018 18:00:00 9,8 1,7 9,0 11,1 11,7 14 7 18 10 OZO 1006,5 20 0 0,0
20.02.2018 17:00:00 10,3 1,6 10,5 11,1 11,6 8 4 16 9 ZO 1006,7 20 22 0,0
20.02.2018 16:00:00 10,8 1,9 12,3 11,1 11,4 10 5 21 11 OZO 1006,6 20 43 0,0
20.02.2018 15:00:00 10,8 2,4 12,4 11,1 11,5 14 8 21 11 OZO 1006,7 20 16 0,0
20.02.2018 14:00:00 11,2 2,2 14,9 11,1 11,6 4 2 12 7 OZO 1007,2 20 49 0,0
20.02.2018 13:00:00 10,2 3,0 12,0 11,1 11,5 7 4 12 6 OZO 1007,6 20 5 0,0
20.02.2018 12:00:00 10,1 3,1 12,7 11,1 11,6 7 4 11 6 O 1008,1 15 0 0,2
20.02.2018 11:00:00 9,5 3,5 9,9 11,1 11,4 5 3 16 9 NNO 1008,4 15 11 0,0
20.02.2018 10:00:00 9,0 3,2 8,0 11,0 11,5 13 7 21 11 ONO 1008,5 15 0 0,0
20.02.2018 09:00:00 8,3 4,9 7,0 11,0 11,4 13 7 19 10 ONO 1008,5 10 0 0,0
20.02.2018 08:00:00 7,8 5,4 6,9 11,0 11,5 10 6 18 10 ONO 1008,7 2,8 0 0,8
20.02.2018 07:00:00 7,7 6,2 7,2 11,0 11,5 9 5 18 10 N 1008,5 20 0 0,2
20.02.2018 06:00:00 7,8 6,1 7,3 11,1 11,7 8 4 9 5 NW 1008,7 20 0 0,0
20.02.2018 05:00:00 7,9 6,2 7,2 11,1 11,6 8 5 13 7 NNW 1009,1 20 0 0,4
20.02.2018 04:00:00 8,3 6,1 7,6 11,0 11,5 8 5 10 5 NNW 1009,5 20 0 0,0
20.02.2018 03:00:00 8,5 5,9 7,5 11,0 11,5 6 4 12 7 NNW 1010,0 20 0 0,0
20.02.2018 02:00:00 8,2 6,3 7,6 11,0 11,5 2 1 14 8 NW 1010,7 20 0 0,2
20.02.2018 01:00:00 8,9 6,2 7,5 11,0 11,5 13 7 15 8 NNW 1011,4 12 0 0,0
20.02.2018 00:00:00 9,2 5,7 8,8 11,0 11,4 8 4 16 9 NW 1012,0 20 0 0,0
19.02.2018 23:00:00 10,1 4,9 9,6 11,0 11,5 12 6 22 12 ZW 1012,5 20 0 0,0
19.02.2018 22:00:00 10,3 4,9 9,9 11,0 11,5 16 9 25 13 ZZW 1012,7 20 0 0,0
19.02.2018 21:00:00 10,5 4,8 9,8 11,0 11,5 14 8 22 12 ZZW 1013,0 20 0 0,0
19.02.2018 20:00:00 10,2 5,2 9,5 11,0 11,4 13 7 20 11 ZW 1013,3 20 0 0,0
19.02.2018 19:00:00 10,1 5,1 8,7 11,0 11,5 15 8 24 13 ZW 1013,3 9 0 0,0
19.02.2018 18:00:00 10,9 4,6 10,3 11,0 11,5 14 8 21 11 ZZW 1013,2 35 0 0,0
19.02.2018 17:00:00 10,7 4,6 10,4 11,0 11,4 9 5 13 7 ZW 1013,6 35 0 0,0
19.02.2018 16:00:00 10,6 5,4 11,3 11,0 11,5 7 4 15 8 WZW 1013,9 35 6 0,0
19.02.2018 15:00:00 10,6 4,9 11,5 11,0 11,5 12 6 26 14 ZW 1014,3 35 2 0,0
19.02.2018 14:00:00 10,9 5,6 10,8 11,0 11,6 20 11 35 19 Z 1014,6 30 0 0,0
19.02.2018 13:00:00 10,9 6,2 11,7 11,0 11,5 28 15 36 19 Z 1014,9 35 7 0,0
19.02.2018 12:00:00 12,8 6,2 13,2 10,9 11,6 5 3 13 7 Z 1015,4 35 42 0,0
19.02.2018 11:00:00 10,6 2,4 9,5 10,9 11,4 11 6 22 12 NW 1015,7 35 8 0,0
19.02.2018 10:00:00 8,6 2,2 7,8 10,9 11,5 17 9 24 13 NNW 1015,7 35 0 0,0
19.02.2018 09:00:00 7,9 1,9 7,2 10,9 11,4 18 10 22 12 NNW 1015,9 35 0 0,0
19.02.2018 08:00:00 7,5 2,2 6,8 10,9 11,4 14 7 23 12 NNW 1015,8 35 0 0,0
19.02.2018 07:00:00 7,4 2,3 6,8 10,9 11,6 14 8 20 11 NNW 1015,6 25 0 0,0
19.02.2018 06:00:00 7,4 2,5 6,9 10,9 11,4 18 10 23 13 NNW 1015,5 25 0 0,0
19.02.2018 05:00:00 7,7 2,6 7,1 10,9 11,5 15 8 22 12 NW 1015,5 25 0 0,0
19.02.2018 04:00:00 8,2 3,4 7,6 10,8 11,4 13 7 19 10 NNW 1015,6 25 0 0,0
19.02.2018 03:00:00 8,6 3,8 8,0 10,8 11,5 16 8 24 13 NNW 1015,7 25 0 0,0
19.02.2018 02:00:00 8,6 4,2 7,9 10,8 11,4 16 8 20 11 NNW 1016,0 25 0 0,0
19.02.2018 01:00:00 9,1 4,9 8,2 10,8 11,5 13 7 18 10 NNW 1016,4 25 0 0,0
19.02.2018 00:00:00 9,4 5,8 8,8 10,8 11,4 11 6 15 8 NNW 1016,6 25 0 0,0
18.02.2018 23:00:00 9,6 6,3 8,9 10,8 11,5 11 6 16 9 NNW 1016,5 25 0 0,0
18.02.2018 22:00:00 10,0 6,7 9,4 10,8 11,6 11 6 18 10 NNW 1016,8 25 0 0,0
18.02.2018 21:00:00 10,2 7,1 9,4 10,7 11,4 9 5 17 9 NW 1016,7 25 0 0,0
18.02.2018 20:00:00 11,2 7,9 10,1 10,8 11,4 10 5 16 9 WNW 1016,5 25 0 0,0
18.02.2018 19:00:00 11,8 7,7 9,8 10,8 11,4 9 5 16 9 W 1016,3 50 0 0,0
18.02.2018 18:00:00 12,3 7,6 11,1 10,7 11,6 10 5 20 11 ZW 1016,1 50 0 0,0
18.02.2018 17:00:00 12,8 7,9 12,6 10,7 11,4 18 10 26 14 Z 1015,6 50 38 0,0
18.02.2018 16:00:00 13,5 7,9 18,0 10,7 11,5 21 12 29 15 Z 1015,0 50 60 0,0
18.02.2018 15:00:00 13,8 8,2 18,7 10,7 11,5 22 12 26 14 Z 1014,4 50 60 0,0
18.02.2018 14:00:00 14,2 7,5 19,3 10,7 11,3 21 11 24 13 ZZW 1014,3 50 60 0,0
18.02.2018 13:00:00 13,6 8,6 19,5 10,7 11,4 19 11 24 13 ZZW 1014,7 50 60 0,0
18.02.2018 12:00:00 13,3 7,9 20,2 10,7 11,3 13 7 16 9 Z 1015,0 50 60 0,0
18.02.2018 11:00:00 13,1 5,7 16,7 10,7 11,3 7 4 17 9 NW 1015,0 50 60 0,0
18.02.2018 10:00:00 11,5 4,9 13,0 10,7 11,4 13 7 21 11 NNW 1015,1 50 60 0,0
18.02.2018 09:00:00 9,4 4,6 8,2 10,6 11,5 16 9 29 15 NNW 1015,1 46 60 0,0
18.02.2018 08:00:00 8,2 4,6 7,3 10,6 11,5 24 13 29 16 NNW 1015,0 50 13 0,0
18.02.2018 07:00:00 8,4 5,3 7,7 10,6 11,4 20 11 25 14 NNW 1014,9 30 0 0,0
18.02.2018 06:00:00 9,2 6,5 8,7 10,6 11,4 16 9 21 12 NNW 1014,6 12 0 0,0
18.02.2018 05:00:00 9,2 6,8 8,6 10,6 11,3 12 6 18 10 NW 1014,7 12 0 0,0
18.02.2018 04:00:00 9,7 7,3 9,5 10,6 11,4 11 6 16 9 NW 1014,4 12 0 0,0
18.02.2018 03:00:00 9,8 7,2 9,6 10,6 11,3 10 6 29 16 NNW 1014,7 12 0 0,0
18.02.2018 02:00:00 11,1 9,2 10,7 10,6 11,3 25 14 38 21 O 1014,6 12 0 0,0
18.02.2018 01:00:00 11,0 9,4 10,7 10,6 11,5 27 15 36 19 ONO 1014,8 12 0 0,0
18.02.2018 00:00:00 11,1 9,7 10,6 10,6 11,5 26 14 34 19 ONO 1014,9 12 0 0,0
17.02.2018 23:00:00 11,6 9,8 10,4 10,6 11,4 14 8 20 11 ONO 1014,9 12 0 0,0
17.02.2018 22:00:00 11,1 9,5 10,4 10,6 11,4 12 6 19 11 NO 1015,4 12 0 0,0
17.02.2018 21:00:00 10,8 9,6 10,5 10,6 11,4 9 5 10 5 N 1015,7 15 0 0,0
17.02.2018 20:00:00 11,4 9,6 10,6 10,5 11,4 3 2 12 7 ZZW 1016,4 15 0 0,0
17.02.2018 19:00:00 11,3 9,7 10,5 10,5 11,3 5 3 11 6 ZW 1017,1 15 0 0,0
17.02.2018 18:00:00 11,2 9,6 10,5 10,5 11,4 6 3 9 5 WZW 1017,3 20 0 0,0
17.02.2018 17:00:00 11,1 9,4 11,2 10,6 11,3 5 3 8 4 ZW 1017,7 20 0 0,0
17.02.2018 16:00:00 11,1 9,5 10,8 10,5 11,3 4 2 11 6 WZW 1018,4 15 0 0,0
17.02.2018 15:00:00 10,6 9,2 10,4 10,5 11,3 6 4 14 8 NW 1018,9 10 0 0,8
17.02.2018 14:00:00 10,3 8,9 10,0 10,5 11,4 8 5 19 10 NW 1019,8 4,0 0 1,2
17.02.2018 13:00:00 10,4 8,7 10,0 10,5 11,4 9 5 23 12 NNW 1020,5 5 0 1,2
17.02.2018 12:00:00 10,7 7,9 10,2 10,5 11,2 11 6 18 10 NNW 1021,1 20 0 0,0
17.02.2018 11:00:00 10,3 7,7 9,7 10,5 11,4 11 6 17 9 NNW 1021,4 20 0 0,0
17.02.2018 10:00:00 9,8 7,7 9,2 10,5 11,4 9 5 26 14 NNW 1021,8 20 0 0,0
17.02.2018 09:00:00 9,6 7,7 9,0 10,5 11,5 14 8 23 13 NW 1022,0 20 0 0,0
17.02.2018 08:00:00 9,4 7,5 8,8 10,5 11,6 12 6 18 10 NNW 1022,1 15 0 0,0
17.02.2018 07:00:00 9,3 7,6 8,7 10,4 11,5 11 6 17 9 NW 1022,0 13 0 0,2
17.02.2018 06:00:00 9,2 7,6 8,7 10,5 11,5 13 7 19 10 NNW 1022,2 13 0 0,4
17.02.2018 05:00:00 9,3 7,6 8,7 10,5 11,5 13 7 18 10 NNW 1022,7 13 0 0,2
17.02.2018 04:00:00 9,6 7,4 8,7 10,5 11,3 13 7 16 9 NNW 1023,0 13 0 0,4
17.02.2018 03:00:00 10,1 6,8 9,5 10,5 11,4 13 7 16 9 NNW 1023,3 13 0 0,0
17.02.2018 02:00:00 10,2 6,3 9,7 10,5 11,4 11 6 12 7 NNW 1023,5 13 0 0,0
17.02.2018 01:00:00 10,1 6,6 9,8 10,5 11,3 6 4 9 5 NNW 1023,6 13 0 0,0
17.02.2018 00:00:00 10,1 6,6 9,8 10,4 11,5 5 3 11 6 NNW 1023,5 13 0 0,0
16.02.2018 23:00:00 10,4 6,3 9,9 10,5 11,5 8 4 10 6 NNW 1023,5 13 0 0,0
16.02.2018 22:00:00 10,5 6,4 10,1 10,4 11,4 9 5 11 6 NNW 1023,4 13 0 0,0
16.02.2018 21:00:00 10,7 6,6 10,1 10,4 11,6 6 3 9 5 NNO 1023,3 13 0 0,0
16.02.2018 20:00:00 10,9 6,4 10,0 10,5 11,4 6 4 9 5 N 1023,1 30 0 0,0
16.02.2018 19:00:00 11,2 6,5 10,3 10,4 11,5 3 2 8 4 NO 1023,2 30 0 0,0
16.02.2018 18:00:00 11,2 6,3 10,4 10,4 11,5 4 2 9 5 O 1023,0 30 0 0,0
16.02.2018 17:00:00 11,4 6,3 11,2 10,4 11,4 5 3 9 5 O 1022,9 25 0 0,0
16.02.2018 16:00:00 11,3 6,0 11,6 10,4 11,5 6 3 11 6 O 1022,8 20 0 0,0
16.02.2018 15:00:00 11,4 6,3 11,9 10,4 11,3 7 4 10 5 O 1022,9 20 0 0,0
16.02.2018 14:00:00 11,3 5,8 12,5 10,4 11,5 4 2 8 5 O 1023,3 20 0 0,0
16.02.2018 13:00:00 11,1 5,0 11,6 10,4 11,4 3 1 12 7 NNW 1024,1 20 0 0,0
16.02.2018 12:00:00 10,5 4,4 10,5 10,4 11,3 5 3 18 10 NW 1024,7 20 0 0,0
16.02.2018 11:00:00 9,7 3,6 9,6 10,4 11,7 11 6 21 12 NNW 1024,6 25 0 0,0
16.02.2018 10:00:00 9,1 3,1 8,9 10,4 11,5 12 6 18 10 NNW 1024,3 30 0 0,0
16.02.2018 09:00:00 8,8 3,0 8,3 10,4 11,6 12 7 19 10 NNW 1024,1 30 0 0,0
16.02.2018 08:00:00 8,5 2,7 8,2 10,4 11,4 14 8 26 14 NNW 1024,1 25 0 0,0
16.02.2018 07:00:00 8,5 2,9 8,1 10,4 11,4 11 6 20 11 NNW 1023,6 40 0 0,0
16.02.2018 06:00:00 8,5 2,9 7,8 10,4 11,4 12 6 15 8 NNW 1023,8 40 0 0,0
16.02.2018 05:00:00 8,3 2,9 7,9 10,4 11,6 11 6 17 9 NNW 1023,8 40 0 0,0
16.02.2018 04:00:00 8,2 2,8 7,8 10,4 11,4 13 7 18 10 NNW 1023,9 40 0 0,0
16.02.2018 03:00:00 8,0 2,9 7,7 10,4 11,5 13 7 18 10 NNW 1024,2 40 0 0,0
16.02.2018 02:00:00 8,0 2,9 7,6 10,4 11,6 13 7 17 9 NNW 1024,1 40 0 0,0
16.02.2018 01:00:00 7,9 3,2 7,7 10,5 11,5 12 7 16 9 NNW 1024,3 40 0 0,0
16.02.2018 00:00:00 8,0 3,3 7,8 10,4 11,5 11 6 17 9 NNW 1024,3 40 0 0,0
15.02.2018 23:00:00 8,1 3,4 7,8 10,5 11,6 13 7 23 12 NW 1024,0 40 0 0,0
15.02.2018 22:00:00 8,2 4,0 7,0 10,4 11,5 10 5 17 9 NNW 1023,7 40 0 0,0
15.02.2018 21:00:00 8,0 4,2 6,9 10,5 11,7 10 6 16 8 NNW 1023,3 40 0 0,0
15.02.2018 20:00:00 9,4 4,6 7,5 10,4 11,5 7 4 9 5 NNO 1023,1 40 0 0,0
15.02.2018 19:00:00 10,4 5,0 8,4 10,5 11,4 6 4 14 8 OZO 1023,0 40 0 0,0
15.02.2018 18:00:00 10,1 4,5 8,7 10,5 11,5 8 5 16 8 O 1022,6 40 8 0,0
15.02.2018 17:00:00 10,8 4,9 10,5 10,5 11,6 11 6 18 10 O 1022,2 40 13 0,0
15.02.2018 16:00:00 10,5 4,4 10,6 10,5 11,6 16 9 26 14 OZO 1022,1 40 3 0,0

tt = temperatuur
td = dauwpunt
tt 5cm = temperatuur 5cm
tt -20cm = temperatuur -20cm
tt -100cm = temperatuur -100cm
ff = windsnelheid
fx = windstoten
dd = windrichting
ppp = luchtdruk
vv = zicht
sd = Zonneschijnduur
rr = neerslag

Weerstations in de omgeving